STARLINK-32784, 62607

Orbit data source: Space-Track

STARLINK-32784, 62607 is a payload satellite owned by SpaceX/Seattle (US) in LEO that was launched on Mon, 13 Jan 2025 UTC via an FALCON 9 launch vehicle from the Air Force Eastern Test Range (AFETR). Payload-class satellites include a variety of spacecraft equipped with specific instruments for various scientific and technological missions. These include communications satellites like Starlink; space stations such as the ISS; scientific satellites like the Hubble; Earth observation satellites from companies like Planet Labs, Umbra, and HawkEye 360; GPS; miniature CubeSats for education and research; and military/defense satellites.

Loading next visibility...
Identifier
62607, 2025-008W
Orbit
LEO
Country
Flag of USUS
Related business
Manufacturer
SpaceX/Seattle
Mission
Operational Commercial Communications
Bus & Motor
STARLINK V2M, Unknown motor
Mass
730 kg wet, ~700 kg dry
Launch date (UTC)
2025-01-13 (11 months ago)
Launch vehicle
FALCON 9
Launch site
Air Force Eastern Test Range (AFETR)
Object type
Payload
Rocket body
Debris
Shape & HBR
Box + 2 Pan, 17.7 m
Radar Cross Section
33.884 m², Large (>1 m²)

Expand to show TLE details & history
Last TLE update: 15 hours ago

TLE from 15 hours ago
0 STARLINK-32784
1 62607U 25008W   25340.55948391  .00037368  00000-0  13590-2 0  9991
2 62607  43.0029  83.6683 0001456 266.5879  93.4806 15.27616686 51389
Epoch: 2025-12-06T13:25Z
TLE epoch observation values (Epoch: 2025-12-06T13:25:39.409Z)
Latitude
-0.00004°
Longitude
166.66857°
Altitude
482.776 km
Speed
7.626 km/s
True Right ascension
05h 34m 40s
True Declination
0° 00' 00"
Sunlit
Object was in full shadow at epoch
Visualization orbit readout
Latitude
Unknown
Longitude
Unknown
Altitude
Unknown
Speed
Unknown
Apparent Right ascension
Unknown
Apparent Declination
Unknown
Sunlit
N/A
Visualization observer readout
Local Sidereal Time
02:03:55
Azimuth
Unknown
Elevation
Unknown
Doppler factor
Unknown
Orbital elements
Apogee altitude
485.883 km
Perigee altitude
483.885 km
Semi-major axis
6,863.021 km
Eccentricity
0.00015
Inclination
43.0029°
RAAN
83.6683°
Arg. of periapsis
266.5879°
True anomaly
93.49725°
Mean anomaly
93.4806°
Eccentric anomaly
93.48893°
Mean motion
3.81742 °/min
Orbital period
94.3 mins
BSTAR
0.001359
Loading maneuver chart data...
Computing Atmospheric mass density...
Loading historical data...
Loading historical data...
Loading historical data...
Loading historical data...
Loading historical data...
Loading historical data...
Loading historical data...

Documentation

Showing up to 5 results
|